Weather History for KBIF - April, 2014

Change the Weather History Date:

Tuesday, April 22, 2014

  Actual Average Record
Temperature  
Mean Temperature 76 °F -  
Max Temperature 88 °F - - ()
Min Temperature 64 °F - - ()
Cooling Degree Days 11    
Growing Degree Days 26 (Base 50)    
Moisture  
Dew Point 35 °F    
Average Humidity 21    
Maximum Humidity 52    
Minimum Humidity 12    
Precipitation  
Precipitation 0.00 in - - ()
Sea Level Pressure  
Sea Level Pressure 29.94 in    
Wind  
Wind Speed 9 mph (SE)    
Max Wind Speed 18 mph    
Max Gust Speed 28 mph    
Visibility 11 miles    
Events      
T = Trace of Precipitation, MM = Missing Value Source: NWS Daily Summary

Daily Weather History Graph

Daily Weather History Graph

Search for Another Location

Airport or City:

Trip Planner

Search our weather history database for the weather conditions in past years. The results will help you decide how hot, cold, wet, or windy it might be!

Date:

Astronomy

Apr. 22, 2014 Rise Set
Actual Time 6:28 AM MDT 7:39 PM MDT
Civil Twilight 6:03 AM MDT 8:04 PM MDT
Nautical Twilight 5:33 AM MDT 8:35 PM MDT
Astronomical Twilight 5:02 AM MDT 9:06 PM MDT
Moon 1:54 AM MDT (4/22) 1:08 PM MDT (4/22)
Length of Visible Light 14h 01m
Length of Day
13h 10m
Last Quarter, 45% of the Moon is Illuminated
Apr 22
Last Quarter
Apr 29
New
May 6
First Quarter
May 14
Full
May 21
Last Quarter

Hourly Weather History & Observations

Time (MDT) Temp. Dew Point Humidity Pressure Visibility Wind Dir Wind Speed Gust Speed Precip Events Conditions
12:56 AM 67.3 °F 40.1 °F 37% 29.94 in 7.0 mi West 2.3 mph - N/A   Clear
1:56 AM 70.9 °F 35.2 °F 27% 29.92 in 7.0 mi SSW 5.8 mph - N/A   Clear
2:56 AM 69.6 °F 35.1 °F 28% 29.93 in 7.0 mi South 2.3 mph - N/A   Clear
3:56 AM 64.6 °F 38.5 °F 38% 29.94 in 7.0 mi NNE 3.5 mph - N/A   Clear
4:56 AM 64.6 °F 42.6 °F 45% 29.95 in 7.0 mi NNW 4.6 mph - N/A   Clear
5:56 AM 64.4 °F 45.3 °F 50% 29.95 in 7.0 mi NE 1.2 mph - N/A   Clear
6:56 AM 65.3 °F 46.2 °F 50% 29.97 in 7.0 mi ESE 3.5 mph - N/A   Clear
7:56 AM 66.2 °F 48.2 °F 52% 29.97 in 12.0 mi North 2.3 mph - N/A   Clear
8:56 AM 71.6 °F 46.4 °F 41% 29.98 in 12.0 mi ESE 1.2 mph - N/A   Clear
9:56 AM 73.4 °F 41.5 °F 32% 29.96 in 7.0 mi SE 8.1 mph - N/A   Clear
10:56 AM 77.0 °F 42.8 °F 29% 29.94 in 7.0 mi ESE 6.9 mph 13.8 mph N/A   Partly Cloudy
11:01 AM 77.0 °F 42.8 °F 29% 30.11 in 12.0 mi SE 6.9 mph 13.8 mph N/A   Clear
11:21 AM 78.8 °F 39.2 °F 24% 30.10 in 12.0 mi SE 10.4 mph 17.3 mph N/A   Clear
11:35 AM 80.6 °F 39.2 °F 23% 30.10 in 12.0 mi ESE 13.8 mph 18.4 mph N/A   Clear
11:36 AM 80.6 °F 39.2 °F 23% 30.09 in 12.0 mi SE 13.8 mph 18.4 mph N/A   Clear
11:56 AM 81.3 °F 37.6 °F 21% 29.89 in 7.0 mi SSE 10.4 mph 17.3 mph N/A   Clear
12:02 PM 80.6 °F 37.4 °F 21% 30.08 in 12.0 mi SSE 11.5 mph 19.6 mph N/A   Partly Cloudy
12:16 PM 82.4 °F 37.4 °F 20% 30.07 in 12.0 mi SE 12.7 mph 18.4 mph N/A   Clear
12:18 PM 82.4 °F 37.4 °F 20% 30.07 in 12.0 mi SSE 12.7 mph - N/A   Clear
12:20 PM 82.4 °F 37.4 °F 20% 30.06 in 12.0 mi ESE 12.7 mph 18.4 mph N/A   Clear
12:30 PM 82.4 °F 35.6 °F 19% 30.05 in 11.0 mi SE 15.0 mph 24.2 mph N/A   Clear
12:31 PM 82.4 °F 35.6 °F 19% 30.05 in 11.0 mi SSE 17.3 mph 24.2 mph N/A   Clear
12:32 PM 82.4 °F 35.6 °F 19% 30.06 in 11.0 mi SSE 16.1 mph 24.2 mph N/A   Clear
12:34 PM 82.4 °F 37.4 °F 20% 30.05 in 12.0 mi SSE 10.4 mph 24.2 mph N/A   Clear
12:46 PM 84.2 °F 32.0 °F 15% 30.04 in 12.0 mi SE 13.8 mph 25.3 mph N/A   Clear
12:47 PM 84.2 °F 32.0 °F 15% 30.05 in 12.0 mi SE 13.8 mph 25.3 mph N/A   Clear
12:48 PM 84.2 °F 32.0 °F 15% 30.04 in 12.0 mi SSE 15.0 mph 25.3 mph N/A   Clear
12:56 PM 84.4 °F 32.2 °F 15% 29.86 in 12.0 mi SE 16.1 mph 21.9 mph N/A   Clear
12:58 PM 84.2 °F 32.0 °F 15% 30.03 in 12.0 mi ESE 11.5 mph 21.9 mph N/A   Clear
1:10 PM 84.2 °F 32.0 °F 15% 30.02 in 12.0 mi East 12.7 mph 23.0 mph N/A   Clear
1:14 PM 84.2 °F 32.0 °F 15% 30.02 in 12.0 mi SSE 13.8 mph 25.3 mph N/A   Partly Cloudy
1:17 PM 84.2 °F 32.0 °F 15% 30.02 in 12.0 mi East 12.7 mph 25.3 mph N/A   Partly Cloudy
1:21 PM 86.0 °F 32.0 °F 14% 30.02 in 12.0 mi South 13.8 mph 23.0 mph N/A   Clear
1:32 PM 86.0 °F 30.2 °F 13% 30.01 in 12.0 mi SSE 8.1 mph 16.1 mph N/A   Partly Cloudy
1:46 PM 86.0 °F 30.2 °F 13% 30.00 in 12.0 mi SE 15.0 mph 21.9 mph N/A   Partly Cloudy
1:53 PM 86.0 °F 30.2 °F 13% 30.00 in 12.0 mi SSE 18.4 mph 27.6 mph N/A   Partly Cloudy
1:56 PM 85.5 °F 31.6 °F 14% 29.81 in 12.0 mi SSE 15.0 mph 27.6 mph N/A   Partly Cloudy
1:57 PM 84.2 °F 32.0 °F 15% 29.99 in 12.0 mi SSW 8.1 mph 27.6 mph N/A   Partly Cloudy
2:04 PM 86.0 °F 32.0 °F 14% 29.99 in 12.0 mi SSE 12.7 mph 25.3 mph N/A   Scattered Clouds
2:12 PM 86.0 °F 32.0 °F 14% 29.99 in 12.0 mi SE 12.7 mph 25.3 mph N/A   Partly Cloudy
2:13 PM 86.0 °F 32.0 °F 14% 29.98 in 12.0 mi SSE 12.7 mph 25.3 mph N/A   Partly Cloudy
2:56 PM 86.9 °F 30.9 °F 13% 29.77 in 7.0 mi SE 17.3 mph 23.0 mph N/A   Mostly Cloudy
3:26 PM 87.8 °F 32.0 °F 14% 29.93 in 12.0 mi ESE 15.0 mph 24.2 mph N/A   Scattered Clouds
3:56 PM 88.2 °F 29.3 °F 12% 29.73 in 12.0 mi SSE 12.7 mph 20.7 mph N/A   Scattered Clouds
4:54 PM 87.8 °F 28.4 °F 12% 29.88 in 12.0 mi ESE 13.8 mph 23.0 mph N/A   Partly Cloudy
4:56 PM 87.3 °F 28.9 °F 12% 29.70 in 12.0 mi ESE 13.8 mph 23.0 mph N/A   Partly Cloudy
5:56 PM 86.2 °F 28.8 °F 13% 29.68 in 12.0 mi SE 11.5 mph 20.7 mph N/A   Mostly Cloudy
6:56 PM 86.0 °F 28.2 °F 12% 29.66 in 12.0 mi SE 12.7 mph 24.2 mph N/A   Mostly Cloudy
7:56 PM 84.6 °F 27.9 °F 13% 29.65 in 12.0 mi ESE 12.7 mph - N/A   Scattered Clouds
8:56 PM 82.4 °F 28.9 °F 14% 29.66 in 12.0 mi SSE 8.1 mph - N/A   Mostly Cloudy
9:56 PM 81.9 °F 30.9 °F 16% 29.68 in 6.0 mi South 6.9 mph 16.1 mph N/A   Mostly Cloudy
10:56 PM 82.6 °F 25.2 °F 12% 29.68 in 11.0 mi SSW 11.5 mph - N/A   Mostly Cloudy
11:56 PM 79.7 °F 28.4 °F 15% 29.68 in 7.0 mi SSW 5.8 mph - N/A   Mostly Cloudy